Date String (YYYY-MM-DD hh:mm:ss) UTC,Instrument flags,Ambient pressure (hPa),Sample flow (lpm),Bypass flow (lpm),Sample temperature (°C),Ambient temperature (°C),ASC tube jacket temperature (°C),LED temperature (°C),Box temperature (°C),Sample RH (%),Span deviation,Mass concentration (μg/m³),Mass concentration (μg/m³),Mass concentration (μg/m³)
DateTimeUTC,F1_M11,P_M11,Q1_M11,Q2_M11,T1_M11,T2_M11,T3_M11,T4_M11,T5_M11,U1_M11,ZSPAN_M11,X0_M11,X2_M11,X1_M11
2022-09-09 01:00:00,,0822.0,4.99,0.00,29.5,26.3,00.0,38.2,31.3,19.3,0001.3,0024.69,0009.38,0007.48
2022-09-09 01:01:00,,0822.0,5.00,0.00,29.5,26.4,00.0,38.1,31.2,19.5,0002.4,0024.97,0009.49,0007.56
2022-09-09 01:02:00,,0822.0,5.00,0.00,29.4,26.6,00.0,38.1,31.1,19.7,0000.9,0025.04,0009.54,0007.63
2022-09-09 01:03:00,,0822.0,4.99,0.00,29.4,27.0,00.0,38.1,31.1,19.9,0001.9,0025.01,0009.60,0007.71
2022-09-09 01:04:00,,0821.9,5.00,0.00,29.4,27.4,00.0,38.1,31.2,20.1,0002.7,0024.78,0009.65,0007.82
2022-09-09 01:05:00,,0822.1,5.02,0.00,29.4,27.7,00.0,38.1,31.2,20.1,0003.0,0024.56,0009.75,0007.91
2022-09-09 01:06:00,,0822.1,5.00,0.00,29.4,27.9,00.0,38.1,31.3,20.2,0002.8,0024.57,0009.89,0008.01
2022-09-09 01:07:00,,0822.1,4.99,0.00,29.4,28.1,00.0,38.1,31.3,20.2,0002.4,0023.19,0009.89,0008.11
2022-09-09 01:08:00,,0822.1,5.00,0.00,29.5,28.3,00.0,38.1,31.4,20.1,0002.3,0022.54,0009.96,0008.19
2022-09-09 01:09:00,,0822.1,5.01,0.00,29.5,28.4,00.0,38.1,31.5,20.1,0002.3,0022.92,0010.06,0008.26
2022-09-09 01:10:00,,0822.0,4.99,0.00,29.6,28.6,00.0,38.2,31.5,20.1,0002.3,0024.02,0010.14,0008.31
2022-09-09 01:11:00,,0821.9,5.00,0.00,29.6,28.3,00.0,38.2,31.5,20.1,0002.1,0023.53,0010.15,0008.34
2022-09-09 01:12:00,,0822.1,5.01,0.00,29.6,27.1,00.0,38.2,31.4,20.2,0001.9,0023.04,0010.11,0008.36
2022-09-09 01:13:00,,0821.9,5.00,0.00,29.6,27.0,00.0,38.2,31.4,20.1,0001.5,0023.71,0010.14,0008.38
2022-09-09 01:14:00,,0821.8,5.00,0.00,29.5,27.1,00.0,38.1,31.3,20.2,0001.2,0024.51,0010.21,0008.39
2022-09-09 01:15:00,,0821.8,4.99,0.00,29.5,27.4,00.0,38.1,31.3,20.2,0000.9,0024.22,0010.28,0008.38
2022-09-09 01:16:00,,0821.9,5.00,0.00,29.5,27.7,00.0,38.1,31.3,20.2,0000.5,0024.65,0010.27,0008.37
2022-09-09 01:17:00,,0821.8,5.01,0.00,29.5,28.0,00.0,38.2,31.4,20.0,0000.6,0024.78,0010.19,0008.35
2022-09-09 01:18:00,,0821.9,5.00,0.00,29.5,28.2,00.0,38.2,31.4,19.9,0000.7,0024.83,0010.22,0008.35
2022-09-09 01:19:00,,0821.9,4.98,0.00,29.6,28.4,00.0,38.2,31.5,20.0,0000.6,0024.37,0010.23,0008.34
2022-09-09 01:20:00,,0822.1,5.00,0.00,29.6,28.5,00.0,38.2,31.6,19.9,0001.0,0023.22,0010.19,0008.33
2022-09-09 01:21:00,,0822.0,5.00,0.00,29.6,28.4,00.0,38.3,31.6,19.9,0001.1,0021.90,0010.20,0008.33
2022-09-09 01:22:00,,0821.9,4.98,0.00,29.6,27.2,00.0,38.3,31.4,19.7,0001.3,0022.73,0010.25,0008.31
2022-09-09 01:23:00,,0821.8,5.00,0.00,29.6,26.9,00.0,38.2,31.4,19.9,0001.3,0023.25,0010.25,0008.28
2022-09-09 01:24:00,,0821.8,4.99,0.00,29.6,27.1,00.0,38.2,31.3,20.0,0001.2,0022.77,0010.21,0008.24
2022-09-09 01:25:00,,0821.8,5.00,0.00,29.5,27.3,00.0,38.2,31.3,20.2,0001.4,0022.67,0010.11,0008.20
2022-09-09 01:26:00,,0821.9,5.00,0.00,29.5,27.6,00.0,38.2,31.3,20.4,0002.1,0023.49,0010.02,0008.17
2022-09-09 01:27:00,,0821.9,5.00,0.00,29.5,27.9,00.0,38.2,31.4,20.2,0000.8,0023.47,0009.93,0008.13
2022-09-09 01:28:00,,0821.9,5.00,0.00,29.6,28.2,00.0,38.2,31.4,20.4,0000.4,0022.09,0009.90,0008.09
2022-09-09 01:29:00,,0822.0,5.00,0.00,29.6,28.4,00.0,38.2,31.5,20.1,0001.2,0020.85,0009.83,0008.05
2022-09-09 01:30:00,,0822.0,5.00,0.00,29.6,28.5,00.0,38.3,31.6,20.0,0001.2,0020.90,0009.81,0008.03
2022-09-09 01:31:00,,0822.1,4.98,0.00,29.7,28.6,00.0,38.3,31.6,19.9,0001.2,0021.49,0009.81,0008.05
2022-09-09 01:32:00,,0822.1,5.00,0.00,29.7,28.1,00.0,38.3,31.6,19.8,0001.0,0021.53,0009.77,0008.06
2022-09-09 01:33:00,,0822.1,4.99,0.00,29.6,26.7,00.0,38.3,31.3,19.9,0000.4,0021.24,0009.72,0008.08
2022-09-09 01:34:00,,0822.1,5.01,0.00,29.6,26.2,00.0,38.3,31.3,19.9,0001.7,0020.48,0009.71,0008.13
2022-09-09 01:35:00,,0822.1,4.99,0.00,29.5,26.4,00.0,38.2,31.2,20.0,0001.9,0020.54,0009.70,0008.18
2022-09-09 01:36:00,,0822.1,5.01,0.00,29.5,26.7,00.0,38.2,31.1,20.1,0001.8,0020.89,0009.77,0008.24
2022-09-09 01:37:00,,0822.1,4.98,0.00,29.4,27.1,00.0,38.2,31.2,20.3,0001.4,0021.08,0009.86,0008.28
2022-09-09 01:38:00,,0822.1,5.00,0.00,29.4,27.4,00.0,38.2,31.2,20.3,0001.3,0021.15,0009.92,0008.33
2022-09-09 01:39:00,,0822.1,5.00,0.00,29.4,27.7,00.0,38.2,31.3,20.1,0001.8,0021.49,0009.96,0008.39
2022-09-09 01:40:00,,0822.1,5.00,0.00,29.5,28.0,00.0,38.2,31.3,19.9,0001.7,0021.79,0010.03,0008.45
2022-09-09 01:41:00,,0822.1,5.01,0.00,29.5,28.2,00.0,38.2,31.4,19.9,0001.8,0022.22,0010.09,0008.50
2022-09-09 01:42:00,,0822.1,5.00,0.00,29.5,28.3,00.0,38.2,31.4,20.0,0002.0,0022.16,0010.11,0008.53
2022-09-09 01:43:00,,0822.1,4.99,0.00,29.6,28.5,00.0,38.2,31.5,19.9,0001.9,0022.33,0010.14,0008.55
2022-09-09 01:44:00,,0822.1,5.02,0.00,29.6,28.6,00.0,38.2,31.5,19.9,0001.9,0022.39,0010.15,0008.55
2022-09-09 01:45:00,,0822.1,4.99,0.00,29.6,28.7,00.0,38.3,31.6,19.8,0002.3,0022.30,0010.07,0008.53
2022-09-09 01:46:00,,0822.0,5.00,0.00,29.7,28.0,00.0,38.3,31.6,19.7,0002.2,0021.98,0010.01,0008.51
2022-09-09 01:47:00,,0822.1,5.01,0.00,29.6,26.6,00.0,38.3,31.3,19.6,0002.4,0021.88,0009.95,0008.50
2022-09-09 01:48:00,,0822.1,5.00,0.00,29.6,26.2,00.0,38.2,31.3,19.5,0002.5,0021.22,0009.90,0008.51
2022-09-09 01:49:00,,0822.1,4.99,0.00,29.5,26.5,00.0,38.2,31.2,19.5,0002.2,0020.53,0009.89,0008.49
2022-09-09 01:50:00,,0822.1,5.00,0.00,29.4,26.8,00.0,38.1,31.1,19.5,0001.3,0020.43,0009.89,0008.47
2022-09-09 01:51:00,,0822.2,5.01,0.00,29.4,27.2,00.0,38.1,31.2,19.7,0000.0,0020.30,0009.83,0008.44
2022-09-09 01:52:00,,0822.2,5.00,0.00,29.4,27.5,00.0,38.1,31.2,19.7,0000.5,0020.04,0009.76,0008.41
2022-09-09 01:53:00,,0822.2,5.00,0.00,29.4,27.8,00.0,38.1,31.3,19.6,0000.0,0019.32,0009.72,0008.39
2022-09-09 01:54:00,,0822.3,5.00,0.00,29.5,28.0,00.0,38.2,31.3,19.6,0000.0,0018.79,0009.64,0008.36
2022-09-09 01:55:00,,0822.4,5.00,0.00,29.5,28.2,00.0,38.2,31.4,19.6,0000.0,0018.43,0009.64,0008.36
2022-09-09 01:56:00,,0822.4,4.98,0.00,29.5,28.3,00.0,38.2,31.4,19.5,0000.0,0018.20,0009.68,0008.34
2022-09-09 01:57:00,,0822.4,5.01,0.00,29.5,28.5,00.0,38.2,31.5,19.4,0000.0,0018.09,0009.70,0008.34
2022-09-09 01:58:00,,0822.4,5.00,0.00,29.6,28.6,00.0,38.2,31.5,19.2,0000.0,0017.21,0009.68,0008.31
2022-09-09 01:59:00,,0822.4,5.00,0.00,29.6,28.7,00.0,38.3,31.6,19.0,0000.4,0016.81,0009.62,0008.27
